Regional Weather Roundup
Issued by NWS Portland, ME

Home | Current Version | Previous Version | Text Only | Print | Product List | Glossary On
Versions: 1 2 3 4 5 6 7 8 9 10 11 12 13 14 15 16 17 18 19 20 21 22 23 24 25 26 27 28 29 30 31 32 33 34 35 36 37 38 39 40 41 42 43 44 45 46 47 48 49 50
000
ASUS41 KGYX 211010
RWRGYX
WEATHER ROUNDUP FOR MAINE AND NEW HAMPSHIRE
NATIONAL WEATHER SERVICE GRAY ME
600 AM EDT SUN SEP 21 2014

MEZ002-005-006-010-012-015-018-020-021-024-026-027-029-211100-
MAINE

CITY           SKY/WX    TMP DP  RH WIND       PRES   REMARKS
PORTLAND       LGT RAIN  57  54  89 CALM      29.97F
SANFORD        CLOUDY    54  52  94 CALM      29.97F
BAR HARBOR     CLOUDY    61  61 100 SW9       29.99F
WISCASSET      CLOUDY    60  58  92 S5        29.99F
ROCKLAND       CLOUDY    61  57  88 S3        29.98F
FRYEBURG       CLOUDY    55  53  93 CALM      29.95F
LEWISTONAUBURN CLOUDY    54  52  94 S6        29.96S
AUGUSTA        CLOUDY    58  55  90 VRB6      29.97S
WATERVILLE     PTCLDY    57  52  82 S6        29.90F
BANGOR         MOCLDY    59  56  89 S10       29.96S
GREENVILLE       N/A     53  53 100 VRB3      29.90S
MILLINOCKET    CLOUDY    56  53  90 SE5       29.92F
HOULTON        CLOUDY    57  53  86 VRB6      29.90S
PRESQUE ISLE   PTCLDY    54  48  82 SE3       29.84F
FRENCHVILLE    MOCLDY    52  51  97 S12       29.81S
CARIBOU        PTCLDY    53  51  93 S8        29.84F
$$

NHZ002-005-008-009-011-012-014-211100-
NEW HAMPSHIRE

CITY           SKY/WX    TMP DP  RH WIND       PRES   REMARKS
PORTSMOUTH     LGT RAIN  59  57  93 CALM      29.96F FOG
ROCHESTER      CLOUDY    57  55  93 CALM      29.96F
NASHUA         HVY RAIN  59  59 100 CALM      29.98R FOG
MANCHESTER     HVY RAIN  59  57  93 CALM      29.95F FOG
CONCORD        CLOUDY    57  56  96 CALM      29.95F
LACONIA        CLOUDY    63  57  82 S10       29.93F
PLYMOUTH       CLOUDY    54  54 100 CALM      29.94S
BERLIN         PTCLDY    53  52  96 CALM      29.90F
WHITEFIELD     PTCLDY    49  47  93 CALM      29.90F FOG
JAFFREY        LGT RAIN  62  59  90 S5        29.97F
LEBANON        MOCLDY    55  52  89 CALM      29.91S FOG
MT WASHINGTON  PTCLDY    45  43  93 SW40G53     N/A
$$

VTZ005-007-008-211100-
VERMONT

CITY           SKY/WX    TMP DP  RH WIND       PRES   REMARKS
ST JOHNSBURY     N/A     54  52  93 MISG      29.88F
MONTPELIER     CLEAR     54  51  90 S5        29.92F
BURLINGTON     PTCLDY    64  56  75 S16G24    29.82S
$$

MAZ007-012-024-CTZ003-RIZ002-NYZ038-NYZ072-211100-
SOUTHERN NEW ENGLAND AND NY

CITY           SKY/WX    TMP DP  RH WIND       PRES   REMARKS
BOSTON         CLOUDY    64  60  87 NE3       29.96F
WORCESTER      RAIN      61  60  97 SE7       29.97F VSB 3/4
NANTUCKET      CLOUDY    65  63  93 SE9       30.00F
PROVIDENCE     CLOUDY    67  64  90 S8        29.96F
HARTFORD       CLOUDY    62  60  93 CALM      29.93F FOG
ALBANY         PTCLDY    63  59  87 S9        29.89S
NEW YORK CITY  CLOUDY    67  66  97 E8        29.91F
$$

ANZ081-ANZ082-ANZ150-NHZ014-MEZ023>029-211100-
COASTAL MARINE OBSERVATIONS

STATION/POSITION TIME  TEMP    WIND        PRES    WAVE
                       AIR SEA DIR/SP/G            HT/PER
                 (UTC) (F)     (DEG/KT/KT) (MB)    (FT/S)
MATINICUS ROCK   1000          180/ 19/ 20 1015.0F
PORTLAND WX BUOY 0950   60 59  170/ 10/ 14 1014.5F   3/ 5
WELLS            0900   57 57  150/  3/  3 1014.5F
ISLE OF SHOALS   1000   62     180/ 12/ 13 1014.5F
JEFFREYS LEDGE   0921      60                N/A     3/ 5
CASHES LEDGE BUO 0950   64 61              1015.2F   3/ 5
$$

.............KEY..............
   WCI - WIND CHILL
   TC  - TEMPERATURE IN CELSIUS
   VSB - VISIBILITY IN MILES
   HX  - HEAT INDEX
   FAIR- INDICATES FEW OR NO CLOUDS BELOW 12,000 FT, WITH NO
         SIGNIFICANT WEATHER AND/OR OBSTRUCTIONS TO VISIBILITY.





USA.gov is the U.S. government's official web portal to all federal, state and local government web resources and services.